Regional Weather Roundup
Issued by NWS

Home | Current Version | Previous Version | Text Only | Print | Product List | Glossary Off
Versions: 1 2 3 4 5 6 7 8 9 10 11 12 13 14 15 16 17 18 19 20 21 22 23 24 25 26 27 28 29 30 31 32 33 34 35 36 37 38 39 40 41 42 43 44 45 46 47 48 49 50

000
ASUS43 KOAX 282310
RWRNE

WEATHER ROUNDUP FOR NEBRASKA
NATIONAL WEATHER SERVICE OMAHA NE
500 PM CST SUN DEC 28 2014

NOTES: SATELLITE DATA IS BEING USED TO AUGMENT CLOUD COVER ABOVE
       12000 FEET.
       "FAIR" INDICATES FEW OR NO CLOUDS BELOW 12,000 FEET WITH NO
       SIGNIFICANT WEATHER AND/OR OBSTRUCTIONS TO VISIBILITY.

  * THESE STATIONS DO NOT REPORT WEATHER SUCH AS RAIN...SNOW OR FOG.

NEZ001>004-019>022-054>056-290000-
NEBRASKA PANHANDLE

CITY           SKY/WX    TMP DP  RH WIND       PRES   REMARKS
SCOTTSBLUFF    CLOUDY    20  15  81 E6        29.90R WCI  12
ALLIANCE       CLOUDY    26  23  88 E3        29.90S
CHADRON        CLOUDY    24  20  84 N3        29.94R
KIMBALL        PTCLDY    24  13  62 NW3       29.86R
SIDNEY         CLEAR     22  12  65 SW5       29.90R WCI  16
$$

NEZ057>060-069>072-079>082-290000-
SOUTHWEST NEBRASKA

CITY           SKY/WX    TMP DP  RH WIND       PRES   REMARKS
NORTH PLATTE   CLOUDY    24  16  71 E7        29.97S WCI  16
IMPERIAL       PTCLDY    25  15  66 E3        29.95R
LEXINGTON      CLOUDY    26  19  77 NE7       30.01F WCI  18
MCCOOK         CLOUDY    26  18  71 E8        29.99S WCI  18
OGALLALA       MOCLDY    27  15  59 E3        29.95S
$$

NEZ005>010-023>029-035>040-094-290000-
NORTH CENTRAL NEBRASKA

CITY           SKY/WX    TMP DP  RH WIND       PRES   REMARKS
VALENTINE      CLOUDY    24  14  65 SE6       30.02R WCI  17
AINSWORTH      CLOUDY    23  17  78 E8        30.02R WCI  13
BROKEN BOW     MOCLDY    26  18  71 E6        30.02R WCI  19
O`NEILL        CLOUDY    19  15  84 NE7       30.08S WCI  10
ORD            CLOUDY    22  15  75 CALM      30.05S
THEDFORD       CLOUDY    28  19  66 CALM      29.98S
$$

NEZ041-046>049-061>064-073>077-083>087-290000-
SOUTH CENTRAL NEBRASKA

CITY           SKY/WX    TMP DP  RH WIND       PRES   REMARKS
GRAND ISLAND   CLOUDY    25  18  74 E3        30.07S
AURORA         CLOUDY    26  21  80 NE5       30.07S WCI  20
HASTINGS       CLOUDY    28  19  69 N3        30.05R
HEBRON         CLOUDY    34  24  66 CALM      30.08R
HOLDREGE       CLOUDY    25  19  76 CALM      30.02S
KEARNEY *      CLOUDY    25  18  74 E5        30.05R WCI  19
YORK           CLOUDY    27  23  86 NE3       30.08S
$$

NEZ011>018-030>034-042>045-290000-
NORTHEAST NEBRASKA

CITY           SKY/WX    TMP DP  RH WIND       PRES   REMARKS
NORFOLK        CLOUDY    23  16  74 E6        30.10R WCI  16
ALBION         CLOUDY    22  14  73 CALM      30.08S
BLAIR          PTCLDY    28  21  77 N8        30.11R WCI  19
COLUMBUS *     MOCLDY    25  14  63 E3        30.12R
FREMONT        MOCLDY    26  18  72 CALM      30.13S
TEKAMAH        PTCLDY    24  18  77 N8        30.15R WCI  15
WAYNE          CLOUDY    21  16  79 N6        30.13S WCI  14
$$

NEZ050>053-065>068-078-088>093-290000-
SOUTHEAST NEBRASKA

CITY           SKY/WX    TMP DP  RH WIND       PRES   REMARKS
LINCOLN        CLOUDY    31  21  66 N5        30.12R WCI  26
OMAHA EPPLEY   MOCLDY    30  23  75 N9        30.14R WCI  22
BEATRICE       MOCLDY    35  24  63 S3        30.09R
FALLS CITY     PTCLDY    38  21  50 CALM      30.11S
NEBRASKA CITY  MOCLDY    34  21  60 NE3       30.11R
PLATTSMOUTH    PTCLDY    32  22  67 CALM      30.11R
$$

NEZ044-045-051>053-067-290000-
OMAHA AREA

CITY           SKY/WX    TMP DP  RH WIND       PRES   REMARKS
OMAHA EPPLEY   MOCLDY    30  23  75 N9        30.14R WCI  22
BLAIR          PTCLDY    28  21  77 N8        30.11R WCI  19
FREMONT        MOCLDY    26  18  72 CALM      30.13S
MILLARD        PTCLDY    32  20  61 CALM      30.13R
OFFUTT AFB     PTCLDY    31  21  68 CALM      30.11S
PLATTSMOUTH    PTCLDY    32  22  67 CALM      30.11R
WAHOO          FAIR      27  20  75 N6        30.12R WCI  21
$$



USA.gov is the U.S. government's official web portal to all federal, state and local government web resources and services.